Regional Weather Roundup
Issued by NWS

Home | Current Version | Previous Version | Text Only | Print | Product List | Glossary On
Versions: 1 2 3 4 5 6 7 8 9 10 11 12 13 14 15 16 17 18 19 20 21 22 23 24 25 26 27 28 29 30 31 32 33 34 35 36 37 38 39 40 41 42 43 44 45 46 47 48 49 50
000
ASUS45 KTFX 300419
RWRMT
MONTANA HOURLY WEATHER ROUNDUP
NATIONAL WEATHER SERVICE GREAT FALLS MT
1019 PM MDT FRI AUG 29 2014

NOTE: "FAIR" INDICATES FEW OR NO CLOUDS BELOW 12000 FEET WITH NO
SIGNIFICANT WEATHER AND/OR OBSTRUCTIONS TO VISIBILITY.

* THESE STATIONS ARE NOT UNDER NWS QUALITY CONTROL. THEY DO NOT
   REPORT WEATHER SUCH AS PRECIPITATION OR FOG.

MTZ001>007-043-300500-
WEST OF THE DIVIDE
CITY           SKY/WX    TMP DP  RH WIND       PRES   REMARKS
KALISPELL      CLOUDY    72  37  28 W7        29.79R
MISSOULA       PTCLDY    72  37  28 N9        29.83R
BUTTE          MOCLDY    61  43  52 CALM      29.96R
MULLAN PASS    CLOUDY    55  34  45 VRB7      29.99S
* LINCOLN      N/A       59  43  56 NE2        N/A
* LOOKOUT PASS N/A       64  34  33 SE7        N/A
* POLSON       N/A       68  35  30 SE1        N/A
* RONAN APT    MOCLDY    68  45  44 N/A        N/A
* SEELEY LAKE  N/A       59  38  46 N2         N/A
* THOMP F APT  CLOUDY    58  37  46 N4         N/A
$$

MTZ008-052>055-300500-
SOUTHWEST MONTANA
CITY           SKY/WX    TMP DP  RH WIND       PRES   REMARKS
BOZEMAN        MOCLDY    72  43  35 S13       29.89S
DILLON         MOCLDY    68  45  44 SE14      29.92F
W YELLOWSTONE  CLOUDY    52  46  80 SW3       30.11F
* THREE FORKS  MOCLDY    72  64  76 S6         N/A
* BOULDER HILL N/A       60  38  44 N/A        N/A
* MONIDA PASS  N/A       55  44  67 SW12G17    N/A
* RAYNOLDS PAS N/A       52  32  47 SE7        N/A
* WHITEHALL    N/A       67  48  51 N4         N/A
* WISE RIVER   N/A       61  38  43 E4         N/A
$$

MTZ009>010-012-014-046-048-049-054-300500-
EAST SLOPES AND CENTRAL MONTANA
CITY           SKY/WX    TMP DP  RH WIND       PRES   REMARKS
CUT BANK       MOCLDY    68  39  35 CALM      29.80S
GREAT FALLS    CLEAR     66  43  43 S7        29.80S
HELENA         CLEAR     64  46  52 W6        29.83F
MALMSTROM AFB  CLEAR     63  45  52 SE10      29.81F
* CONRAD       PTCLDY    57  46  67 N/A        N/A
* EAST GLACIER N/A       65  37  36 W11G24     N/A
* MONARCH      N/A       57  37  47 S11        N/A
* PENDROY      N/A       64  37  37 NW3        N/A
* SAINT MARY   N/A       55  50  83 SE4        N/A
* SWEET GRASS  N/A       68  42  39 S14        N/A
* WHITE SULPH  N/A       63  47  56 NE8G14     N/A
$$

MTZ011-013-016-021-035-040-045-047-050-051-300500-
NORTH CENTRAL MONTANA
CITY           SKY/WX    TMP DP  RH WIND       PRES   REMARKS
HAVRE          CLEAR     70  54  57 SE12      29.77F
LEWISTOWN      CLEAR     64  52  65 E8        29.89S
* CHINOOK      CLEAR     63  54  73 E12       29.81F
* FORT BENTON  CLEAR     70  54  57 E14G21    29.77F
* CHESTER      N/A       66  53  63 SE7G13     N/A
* DENTON       N/A       67  48  51 SE9G14     N/A
* JUDITH GAP   N/A       62  49  63 SE17G22    N/A
* LOMA         N/A       68  54  61 NE13G18    N/A
$$

MTZ017>020-022>027-061-062-300500-
NORTHEAST MONTANA
CITY           SKY/WX    TMP DP  RH WIND       PRES   REMARKS
GLASGOW        CLEAR     61  54  78 E12       29.90F
GLENDIVE       CLEAR     61  52  72 SE6       29.98R VSB 3
JORDAN         CLEAR     61  54  78 E6        29.91F
SIDNEY         CLEAR     54  50  86 CALM      29.97S
WOLF POINT     CLEAR     57  52  83 E3        29.93R
* BEAVER HILL  N/A       57  52  83 E11        N/A
* CIRCLE       N/A       59  51  75 N/A        N/A
* LINDSAY DVD  N/A       54  50  86 E4         N/A
* NAVAJO       N/A       58  48  70 S6         N/A
$$

MTZ028>042-056>058-300500-
SOUTHCENTRAL AND SOUTHEAST MONTANA
CITY           SKY/WX    TMP DP  RH WIND       PRES   REMARKS
BAKER          CLEAR     54  52  93 SE7       30.00R
BILLINGS       PTCLDY    68  54  61 E5        29.91F
LIVINGSTON     TSTM      70  50  49 VRB5      29.92R
MILES CITY     CLEAR     64  48  56 E7        29.95S
* LAUREL APT   CLEAR     64  52  65 N7         N/A
* ROUNDUP APT  PTCLDY    63  48  58 N/A        N/A
* ALZADA       N/A       59  51  75 NE6        N/A
* HYSHAM       N/A       64  46  52 SE6        N/A
* LAME DEER    N/A       62  51  67 SE11       N/A
* REED POINT   N/A       68  54  61 E2         N/A
* ROSCOE HILL  N/A       62  43  50 SE8        N/A
$$

REGIONAL REPORTS...DAKOTAS
CITY           SKY/WX    TMP DP  RH WIND       PRES   REMARKS
WILLISTON      CLEAR     61  48  62 CALM      29.96S
DICKINSON      CLEAR     55  50  83 E7        29.98S
BEACH          N/A       50  50 100 SE3       29.99F
CROSBY         CLEAR     52  46  80 SE6       29.97S
TIOGA          CLEAR     50  50 100 E3        30.01S
WATFORD CITY   CLEAR     55  50  83 SE8       29.95F
BISMARCK       CLEAR     57  54  90 E5        29.98S
GRAND FORKS    CLOUDY    63  55  75 N12       29.91R
FARGO          CLOUDY    63  55  75 N18G24    29.86R
BUFFALO SD     CLEAR     57  52  83 E9        29.94S
RAPID CITY     CLOUDY    63  54  73 NE3       30.03R
$$

REGIONAL REPORTS...WYOMING/IDAHO/WASHINGTON
CITY           SKY/WX    TMP DP  RH WIND       PRES   REMARKS
GILLETTE       CLEAR     55  52  90 S5        30.03R
SHERIDAN       CLEAR     63  52  68 E7        29.97F
CODY           PTCLDY    63  48  58 SE5       30.00S
YELLOWSTONE LA PTCLDY    55  37  51 W6        30.21F
SALMON         PTCLDY    63  52  68 W3        29.84R
MULLAN PASS    CLOUDY    55  34  45 VRB7      29.99S
SAND POINT     CLOUDY    64  48  56 CALM      29.80R
SPOKANE        CLOUDY    70  41  35 W13       29.84R
$$

REGIONAL REPORTS...ALBERTA
CITY           SKY/WX    TMP DP  RH WIND       PRES   REMARKS
CALGARY        MOCLDY    59  48  67 W8        29.71R
LETHBRIDGE     MOCLDY    61  50  67 S12       29.71F
MEDICINE HAT   CLEAR     68  54  61 SE17G23   29.70F
EDMONTON       MOCLDY    55  50  83 SE8       29.64F
WATERTON GATE  N/A       55  43  64 SW3        N/A
CARDSTON       N/A       64  41  43 SW6        N/A
MILK RIVER     N/A       61  48  62 S8         N/A
$$

REGIONAL REPORTS...SASKATCHEWAN
CITY           SKY/WX    TMP DP  RH WIND       PRES   REMARKS
SWIFT CURRENT  CLEAR     57  50  78 S14       29.84F
REGINA         FAIR      55  45  69 E8        29.93S
VAL MARIE      N/A       57  50  78 SE9        N/A
ASSINIBOIA     N/A       55  48  77 SE6        N/A
CORONACH       N/A       52  48  86 SE6        N/A

$$



USA.gov is the U.S. government's official web portal to all federal, state and local government web resources and services.